CCA339 ZGSZ-VHHH

Flight info

Callsign CCA339
Flight time N/A
Altitude 9800
Route SIERA
Aircraft A339/H-SDE2E3FGHIJ5LORVWXY/LB1D1

Departure

Time 2026-04-26 11:21
Airport Shenzhen Bao'an International Airport (ZGSZ)

Arrival

Time N/A
Airport Hong Kong International Airport (VHHH)
Time Latitude Longitude Altitude Speed Heading
2026-04-26 11:18 22.65242 113.80344 30 ft 0 kts 153°
2026-04-26 11:20 22.65063 113.80441 30 ft 57 kts 153°
2026-04-26 11:20 22.64540 113.80717 30 ft 108 kts 151°
2026-04-26 11:21 22.63724 113.81176 30 ft 152 kts 154°
2026-04-26 11:21 22.62665 113.81744 107 ft 182 kts 155°
2026-04-26 11:21 22.61547 113.82335 662 ft 176 kts 154°
2026-04-26 11:21 22.60460 113.82937 1118 ft 180 kts 152°
2026-04-26 11:22 22.59307 113.83599 1512 ft 191 kts 152°
2026-04-26 11:22 22.58103 113.84251 2051 ft 196 kts 153°
2026-04-26 11:22 22.56874 113.84909 2587 ft 200 kts 153°
2026-04-26 11:22 22.55614 113.85585 3119 ft 205 kts 153°
2026-04-26 11:23 22.54326 113.86278 3644 ft 210 kts 153°
2026-04-26 11:23 22.53003 113.86975 4156 ft 214 kts 159°
2026-04-26 11:23 22.51519 113.87206 4542 ft 220 kts 189°
2026-04-26 11:23 22.50100 113.86616 4931 ft 224 kts 219°
2026-04-26 11:24 22.49090 113.85319 5324 ft 228 kts 248°
2026-04-26 11:24 22.48748 113.83653 5718 ft 231 kts 265°
2026-04-26 11:24 22.48633 113.81905 6219 ft 236 kts 266°
2026-04-26 11:24 22.48518 113.80122 6810 ft 241 kts 266°
2026-04-26 11:25 22.48393 113.78325 7330 ft 247 kts 266°
2026-04-26 11:25 22.48250 113.76411 7650 ft 264 kts 266°
2026-04-26 11:25 22.48152 113.75138 7841 ft 275 kts 266°
2026-04-26 11:25 22.47983 113.73000 8154 ft 292 kts 265°
2026-04-26 11:26 22.47727 113.69813 8453 ft 313 kts 265°
2026-04-26 11:26 22.47459 113.67352 8415 ft 343 kts 257°
2026-04-26 11:26 22.46356 113.64970 8396 ft 370 kts 230°
2026-04-26 11:26 22.44306 113.63218 8412 ft 384 kts 209°
2026-04-26 11:27 22.41975 113.61897 8410 ft 370 kts 206°
2026-04-26 11:27 22.31305 113.59184 8181 ft 357 kts 185°
2026-04-26 11:27 22.28893 113.59067 8257 ft 342 kts 182°
2026-04-26 11:27 22.26557 113.58962 8281 ft 328 kts 184°
2026-04-26 11:28 22.12829 113.57845 8328 ft 317 kts 190°
2026-04-26 11:28 22.10694 113.57357 8317 ft 305 kts 192°
2026-04-26 11:28 22.08648 113.56898 8309 ft 294 kts 190°
2026-04-26 11:28 22.06659 113.56523 8307 ft 283 kts 189°
2026-04-26 11:29 22.04734 113.56212 8292 ft 282 kts 188°
2026-04-26 11:29 22.02701 113.56226 8293 ft 298 kts 163°
2026-04-26 11:29 22.00913 113.57269 8237 ft 289 kts 139°
2026-04-26 11:29 21.99482 113.58732 8058 ft 285 kts 135°
2026-04-26 11:30 21.98076 113.60252 7778 ft 285 kts 136°
2026-04-26 11:30 21.97118 113.61251 7584 ft 285 kts 137°
2026-04-26 11:30 21.88216 113.70001 6068 ft 283 kts 140°
2026-04-26 11:30 21.86952 113.71590 5822 ft 282 kts 113°
2026-04-26 11:31 21.86565 113.73625 5597 ft 280 kts 92°
2026-04-26 11:31 21.86558 113.75711 5361 ft 279 kts 83°
2026-04-26 11:31 21.87243 113.77634 5072 ft 277 kts 49°
2026-04-26 11:31 21.88783 113.78810 4834 ft 273 kts 18°
2026-04-26 11:32 21.90643 113.79065 4603 ft 271 kts 353°
2026-04-26 11:32 21.92493 113.78627 4360 ft 270 kts 346°
2026-04-26 11:32 21.94311 113.78130 4104 ft 270 kts 346°
2026-04-26 11:32 21.99263 113.76870 3443 ft 269 kts 347°
2026-04-26 11:33 22.01096 113.76430 3222 ft 267 kts 348°
2026-04-26 11:33 22.02922 113.76013 2995 ft 266 kts 349°
2026-04-26 11:33 22.04775 113.75591 2908 ft 275 kts 349°
2026-04-26 11:33 22.06599 113.75174 2907 ft 265 kts 348°
2026-04-26 11:34 22.08414 113.74756 2649 ft 265 kts 348°
2026-04-26 11:34 22.10223 113.74335 2376 ft 267 kts 349°
2026-04-26 11:34 22.12035 113.73914 2055 ft 262 kts 349°
2026-04-26 11:34 22.13809 113.73502 1600 ft 262 kts 349°
2026-04-26 11:35 22.15570 113.73095 1347 ft 250 kts 349°
2026-04-26 11:35 22.17213 113.72714 1250 ft 229 kts 349°
2026-04-26 11:35 22.18703 113.72366 1214 ft 208 kts 349°
2026-04-26 11:35 22.20062 113.72048 1183 ft 189 kts 349°
2026-04-26 11:36 22.21405 113.71733 1117 ft 206 kts 349°
2026-04-26 11:36 22.22879 113.71443 1177 ft 224 kts
2026-04-26 11:36 22.24325 113.71921 1192 ft 215 kts 41°
2026-04-26 11:36 22.26563 113.74040 1237 ft 206 kts 45°
2026-04-26 11:37 22.27582 113.75117 1219 ft 204 kts 57°
2026-04-26 11:37 22.28318 113.76435 1129 ft 203 kts 68°
2026-04-26 11:37 22.28835 113.77832 1120 ft 201 kts 72°
2026-04-26 11:37 22.29285 113.79257 1119 ft 201 kts 73°
2026-04-26 11:38 22.29731 113.80690 1120 ft 201 kts 73°
2026-04-26 11:38 22.30185 113.82110 1115 ft 201 kts 72°
2026-04-26 11:38 22.30640 113.83515 929 ft 193 kts 72°
2026-04-26 11:38 22.31076 113.84867 681 ft 188 kts 72°
2026-04-26 11:39 22.31497 113.86174 456 ft 180 kts 72°
2026-04-26 11:39 22.31899 113.87404 242 ft 171 kts 73°
2026-04-26 11:39 22.32282 113.88600 56 ft 164 kts 72°
2026-04-26 11:39 22.32623 113.89693 43 ft 135 kts 71°